Location: Borbetomagus
(49.6328°N, 8.3592°E)
Time: 16:41:57
(UTC+00:00)

Cosmos 2082 Rocket - Pass Details

Date: 19 May 2025
Orbit: 832 x 853 km, 71.0° (Epoch: 16 June)

Event Time Altitude Azimuth Distance (km) Brightness Sun altitude
Exits shadow 21:41:57 22° 187° (S) 1,726 3.3 -16.9°
Maximum altitude 21:45:29 62° 113° (ESE) 937 2.2 -17.1°
Drops below altitude 10° 21:51:02 10° 34° (NE) 2,458 5.0 -17.5°
Sets 21:53:30 0° 31° (NNE) 3,399 5.9 -17.6°
